Language: 


Des rapports , des résumés tant et plus, au choix de chacun....


Données statistiques de la station
Quotidien Rapport Février 9, 2018 Unités:  Métrique    Anglais   les deux
« Précédent Jour
Suivant Jour »
Quotidien Hebdomadaire Mensuel Annuel Actuel
  Haut: Bas: Moyen:
Température: -17.8 °C -17.8 °C -17.2 °C
Pt de rosée: -17.8 °C -19.4 °C -17.7 °C
Humidité: Humidity % 77 % 91 %
Vitesse du vent: 0 km/h 0 km/h 15.3 km/h
Rafales: 0 km/h - -
Vent:- - SSW
Pression: 0 hPa 34130.9 hPa -
Précipitation: 129.54 mm    
Historical Graphs
 
 
Données statistiques pour Février 9, 2018
Heure Température Point de rosée Pression Vent Vitesse du vent Refales Humidité Pluie (taux horaire)
-17.8 °C -17.8 °C 0 hPa Calm     Humidity % 0 mm
00:02 -17.4 °C -18.3 °C 34371.3 hPa SSW 14 km/h 14 km/h 88 % 0 mm
00:07 -17.4 °C -18.3 °C 34371.3 hPa SSW 14 km/h 14 km/h 88 % 0 mm
00:12 -17.4 °C -18.3 °C 34371.3 hPa SSW 14 km/h 14 km/h 88 % 0 mm
00:17 -17.4 °C -18.3 °C 34371.3 hPa SSW 18.7 km/h 18.7 km/h 88 % 0 mm
00:22 -17.4 °C -18.3 °C 34371.3 hPa SSW 14.5 km/h 18.7 km/h 88 % 0 mm
00:27 -17.5 °C -18.3 °C 34371.3 hPa South 23 km/h 23 km/h 88 % 0 mm
00:32 -17.5 °C -18.3 °C 34371.3 hPa South 23 km/h 23 km/h 88 % 0 mm
00:37 -17.5 °C -18.3 °C 34371.3 hPa SSW 16.3 km/h 23 km/h 88 % 0 mm
00:42 -17.5 °C -18.3 °C 34371.3 hPa SSW 16.3 km/h 23 km/h 88 % 0 mm
00:47 -17.5 °C -18.3 °C 34371.3 hPa SSW 20.3 km/h 20.3 km/h 88 % 0 mm
00:52 -17.5 °C -18.3 °C 34371.3 hPa SSW 20.3 km/h 20.3 km/h 88 % 0 mm
00:57 -17.5 °C -18.3 °C 34371.3 hPa SSW 15.6 km/h 20.3 km/h 88 % 0 mm
01:02 -17.6 °C -18.3 °C 34371.3 hPa SSW 15.6 km/h 20.3 km/h 88 % 0 mm
01:07 -17.6 °C -18.3 °C 34371.3 hPa SSW 15.6 km/h 15.6 km/h 89 % 0 mm
01:12 -17.5 °C -18.3 °C 34371.3 hPa SSW 15.6 km/h 15.6 km/h 89 % 0 mm
01:18 -17.5 °C -18.3 °C 34371.3 hPa SSW 15.6 km/h 15.6 km/h 89 % 0 mm
01:23 -17.5 °C -18.3 °C 34371.3 hPa SSW 15.6 km/h 15.6 km/h 89 % 0 mm
01:28 -17.5 °C -18.3 °C 34371.3 hPa SSW 15.6 km/h 15.6 km/h 89 % 0 mm
01:33 -17.5 °C -18.3 °C 34371.3 hPa SSW 15.6 km/h 15.6 km/h 89 % 0 mm
01:38 -17.6 °C -18.3 °C 34371.3 hPa SSW 15.6 km/h 15.6 km/h 89 % 0 mm
01:43 -17.6 °C -18.3 °C 34371.3 hPa SSW 15.6 km/h 15.6 km/h 89 % 0 mm
01:48 -17.6 °C -18.3 °C 34371.3 hPa SSW 15.6 km/h 15.6 km/h 88 % 0 mm
01:53 -17.6 °C -18.3 °C 34371.3 hPa SSW 16.9 km/h 16.9 km/h 88 % 0 mm
01:58 -17.6 °C -18.3 °C 34371.3 hPa SSW 16.9 km/h 16.9 km/h 88 % 0 mm
02:03 -17.6 °C -18.3 °C 34337.4 hPa SSW 16.9 km/h 16.9 km/h 88 % 0 mm
02:08 -17.6 °C -18.3 °C 34337.4 hPa SSW 16.9 km/h 16.9 km/h 88 % 0 mm
02:13 -17.6 °C -18.3 °C 34337.4 hPa SSW 16.9 km/h 16.9 km/h 88 % 0 mm
02:18 -17.6 °C -18.3 °C 34337.4 hPa SSW 16.9 km/h 16.9 km/h 88 % 0 mm
02:23 -17.6 °C -18.3 °C 34337.4 hPa SSW 16.9 km/h 16.9 km/h 88 % 0 mm
02:28 -17.6 °C -18.3 °C 34337.4 hPa SSW 16.9 km/h 16.9 km/h 88 % 0 mm
02:33 -17.6 °C -18.3 °C 34337.4 hPa SSW 16.9 km/h 16.9 km/h 88 % 0 mm
02:38 -17.6 °C -18.3 °C 34337.4 hPa South 9.8 km/h 9.8 km/h 88 % 0 mm
02:43 -17.6 °C -18.3 °C 34337.4 hPa South 9.8 km/h 9.8 km/h 88 % 0 mm
02:48 -17.5 °C -18.3 °C 34337.4 hPa South 9.8 km/h 9.8 km/h 87 % 0 mm
02:53 -17.5 °C -18.3 °C 34337.4 hPa SSW 20.9 km/h 20.9 km/h 87 % 0 mm
02:59 -17.5 °C -18.3 °C 34337.4 hPa SSW 14 km/h 20.9 km/h 87 % 0 mm
03:04 -17.5 °C -18.3 °C 34337.4 hPa South 19.6 km/h 20.9 km/h 86 % 0 mm
03:09 -17.6 °C -18.3 °C 34337.4 hPa South 19.6 km/h 20.9 km/h 86 % 0 mm
03:14 -17.6 °C -18.3 °C 34303.6 hPa South 12.7 km/h 27.7 km/h 86 % 0 mm
03:19 -17.6 °C -18.3 °C 34303.6 hPa South 26.7 km/h 27.7 km/h 86 % 0 mm
03:24 -17.6 °C -18.3 °C 34303.6 hPa Calm   26.7 km/h 85 % 0 mm
03:29 -17.6 °C -18.3 °C 34303.6 hPa SSW 25.4 km/h 26.7 km/h 85 % 0 mm
03:34 -17.6 °C -18.3 °C 34303.6 hPa SSW 19.2 km/h 26.2 km/h 85 % 0 mm
03:39 -17.6 °C -18.3 °C 34303.6 hPa SSW 19.2 km/h 25.4 km/h 85 % 0 mm
03:44 -17.6 °C -18.3 °C 34303.6 hPa South 20.3 km/h 27.7 km/h 85 % 0 mm
03:49 -17.6 °C -18.3 °C 34303.6 hPa SSE 14 km/h 29.5 km/h 86 % 0 mm
03:54 -17.6 °C -18.3 °C 34303.6 hPa SSW 16.9 km/h 29.5 km/h 86 % 0 mm
03:59 -17.6 °C -18.3 °C 34303.6 hPa SSE 16.3 km/h 26.2 km/h 86 % 0 mm
04:04 -17.6 °C -18.3 °C 34303.6 hPa SSE 30.7 km/h 30.7 km/h 86 % 0 mm
04:09 -17.6 °C -18.3 °C 34303.6 hPa South 26.7 km/h 30.7 km/h 86 % 0 mm
04:14 -17.6 °C -18.3 °C 34303.6 hPa South 16.9 km/h 30.7 km/h 86 % 0 mm
04:19 -17.6 °C -18.3 °C 34303.6 hPa SSW 24.8 km/h 24.8 km/h 86 % 0 mm
04:24 -17.6 °C -18.3 °C 34303.6 hPa SSW 19.6 km/h 24.8 km/h 87 % 0 mm
04:29 -17.6 °C -18.3 °C 34303.6 hPa South 18.7 km/h 26.2 km/h 87 % 0 mm
04:34 -17.6 °C -18.3 °C 34303.6 hPa SSE 20.9 km/h 33.2 km/h 87 % 0 mm
04:39 -17.6 °C -18.3 °C 34303.6 hPa SSW 19.2 km/h 33.2 km/h 86 % 0 mm
04:45 -17.7 °C -18.9 °C 34269.7 hPa South 22.5 km/h 26.2 km/h 86 % 0 mm
04:50 -17.7 °C -18.9 °C 34269.7 hPa South 20.3 km/h 26.2 km/h 86 % 0 mm
04:55 -17.7 °C -18.9 °C 34269.7 hPa SSW 14.5 km/h 27.2 km/h 86 % 0 mm
05:00 -17.7 °C -18.9 °C 34269.7 hPa SSE 22.5 km/h 27.2 km/h 86 % 0 mm
05:05 -17.7 °C -18.9 °C 34269.7 hPa SSW 16.9 km/h 22.5 km/h 86 % 0 mm
05:10 -17.7 °C -18.9 °C 34269.7 hPa SSE 26.2 km/h 26.7 km/h 86 % 0 mm
05:15 -17.7 °C -18.9 °C 34235.8 hPa SSW 16.9 km/h 30.7 km/h 86 % 0 mm
05:20 -17.7 °C -18.9 °C 34235.8 hPa South 19.6 km/h 30.7 km/h 86 % 0 mm
05:25 -17.7 °C -18.9 °C 34235.8 hPa South 27.7 km/h 27.7 km/h 85 % 0 mm
05:30 -17.7 °C -18.9 °C 34198.6 hPa South 17.4 km/h 27.7 km/h 85 % 0 mm
05:35 -17.7 °C -18.9 °C 34198.6 hPa SSW 20.9 km/h 27.7 km/h 84 % 0 mm
05:40 -17.7 °C -18.9 °C 34198.6 hPa South 20.9 km/h 20.9 km/h 84 % 0 mm
05:45 -17.7 °C -18.9 °C 34235.8 hPa SSW 29.5 km/h 29.5 km/h 84 % 0 mm
05:50 -17.7 °C -18.9 °C 34235.8 hPa South 19.2 km/h 29.5 km/h 83 % 0 mm
05:55 -17.7 °C -18.9 °C 34235.8 hPa South 25.4 km/h 29.5 km/h 83 % 0 mm
06:00 -17.7 °C -18.9 °C 34235.8 hPa SSW 20.3 km/h 27.7 km/h 83 % 0 mm
06:05 -17.7 °C -18.9 °C 34235.8 hPa SSW 20.3 km/h 27.7 km/h 83 % 0 mm
06:10 -17.7 °C -18.9 °C 34235.8 hPa SSW 17.9 km/h 31.4 km/h 83 % 0 mm
06:15 -17.7 °C -18.9 °C 34235.8 hPa South 16.9 km/h 34.8 km/h 83 % 0 mm
06:20 -17.7 °C -18.9 °C 34235.8 hPa SSE 19.2 km/h 34.8 km/h 83 % 0 mm
06:25 -17.7 °C -18.9 °C 34235.8 hPa SSE 19.6 km/h 32.3 km/h 82 % 0 mm
06:30 -17.7 °C -18.9 °C 34235.8 hPa SSE 16.3 km/h 31.9 km/h 82 % 0 mm
06:35 -17.8 °C -19.4 °C 34235.8 hPa South 22.5 km/h 31.9 km/h 82 % 0 mm
06:40 -17.8 °C -19.4 °C 34235.8 hPa South 18.7 km/h 31.9 km/h 82 % 0 mm
06:45 -17.8 °C -19.4 °C 34235.8 hPa South 20.9 km/h 30.7 km/h 82 % 0 mm
06:50 -17.8 °C -19.4 °C 34235.8 hPa SSW 14 km/h 30.7 km/h 82 % 0 mm
06:55 -17.8 °C -19.4 °C 34235.8 hPa SSW 20.3 km/h 30.7 km/h 82 % 0 mm
07:00 -17.7 °C -18.9 °C 34198.6 hPa SSE 18.7 km/h 20.9 km/h 82 % 0 mm
07:05 -17.7 °C -18.9 °C 34198.6 hPa SSE 15.6 km/h 31.9 km/h 82 % 0 mm
07:10 -17.7 °C -19.4 °C 34198.6 hPa South 33.2 km/h 33.2 km/h 81 % 0 mm
07:15 -17.7 °C -19.4 °C 34198.6 hPa South 26.2 km/h 33.2 km/h 80 % 0 mm
07:20 -17.7 °C -19.4 °C 34198.6 hPa South 16.3 km/h 33.2 km/h 80 % 0 mm
07:25 -17.7 °C -19.4 °C 34198.6 hPa SSW 34.8 km/h 34.8 km/h 80 % 0 mm
07:30 -17.6 °C -19.4 °C 34164.7 hPa South 22.5 km/h 34.8 km/h 79 % 0 mm
07:35 -17.6 °C -19.4 °C 34164.7 hPa South 22.5 km/h 34.8 km/h 79 % 0 mm
07:40 -17.6 °C -19.4 °C 34164.7 hPa South 20.9 km/h 33.2 km/h 79 % 0 mm
07:45 -17.6 °C -19.4 °C 34198.6 hPa SSW 15 km/h 33.2 km/h 79 % 0 mm
07:50 -17.6 °C -19.4 °C 34198.6 hPa SSE 15 km/h 26.7 km/h 78 % 0 mm
07:55 -17.6 °C -19.4 °C 34198.6 hPa SW 32.3 km/h 32.3 km/h 78 % 0 mm
08:00 -17.6 °C -19.4 °C 34198.6 hPa SSE 22 km/h 32.3 km/h 78 % 0 mm
08:05 -17.6 °C -19.4 °C 34198.6 hPa SSE 22 km/h 32.3 km/h 78 % 0 mm
08:10 -17.6 °C -19.4 °C 34198.6 hPa SSE 22 km/h 22 km/h 78 % 0 mm
08:15 -17.6 °C -19.4 °C 34198.6 hPa SSW 33.6 km/h 33.6 km/h 78 % 0 mm
08:20 -17.6 °C -19.4 °C 34198.6 hPa SSW 33.6 km/h 33.6 km/h 78 % 0 mm
08:25 -17.6 °C -19.4 °C 34198.6 hPa SSW 30.7 km/h 37.5 km/h 78 % 0 mm
08:30 -17.6 °C -19.4 °C 34198.6 hPa South 27.7 km/h 44.6 km/h 77 % 0 mm
08:35 -17.6 °C -19.4 °C 34198.6 hPa SSW 15.6 km/h 44.6 km/h 77 % 0 mm
08:41 -17.6 °C -19.4 °C 34198.6 hPa SSW 26.2 km/h 28.5 km/h 78 % 0 mm
08:46 -17.6 °C -19.4 °C 34198.6 hPa SSW 16.9 km/h 28.5 km/h 77 % 0 mm
08:51 -17.6 °C -19.4 °C 34198.6 hPa SSW 16.9 km/h 26.2 km/h 78 % 0 mm
08:56 -17.6 °C -19.4 °C 34198.6 hPa SSW 16.9 km/h 16.9 km/h 78 % 0 mm
09:01 -17.5 °C -19.4 °C 34198.6 hPa SSW 16.9 km/h 16.9 km/h 78 % 0 mm
09:06 -17.5 °C -19.4 °C 34198.6 hPa SSW 27.2 km/h 27.2 km/h 78 % 0 mm
09:11 -17.6 °C -19.4 °C 34198.6 hPa SSW 20.3 km/h 32.3 km/h 78 % 0 mm
09:16 -17.6 °C -19.4 °C 34198.6 hPa SSW 20.3 km/h 32.3 km/h 79 % 0 mm
09:21 -17.6 °C -18.9 °C 34198.6 hPa SSW 20.3 km/h 20.3 km/h 80 % 0 mm
09:26 -17.7 °C -18.9 °C 34198.6 hPa SSW 19.6 km/h 20.3 km/h 82 % 0 mm
09:31 -17.7 °C -18.9 °C 34198.6 hPa SSW 19.6 km/h 20.3 km/h 84 % 0 mm
09:36 -17.7 °C -18.9 °C 34198.6 hPa SSE 16.9 km/h 19.6 km/h 86 % 0 mm
09:41 -17.7 °C -18.3 °C 34198.6 hPa SSE 16.9 km/h 19.6 km/h 87 % 0 mm
09:46 -17.7 °C -18.3 °C 34198.6 hPa SSE 16.9 km/h 16.9 km/h 88 % 0 mm
09:51 -17.7 °C -18.3 °C 34198.6 hPa SSE 16.9 km/h 16.9 km/h 89 % 0 mm
09:56 -17.7 °C -18.3 °C 34198.6 hPa SSE 16.9 km/h 16.9 km/h 88 % 0 mm
10:01 -17.6 °C -18.3 °C 34164.7 hPa SSE 16.9 km/h 16.9 km/h 89 % 0 mm
10:06 -17.6 °C -18.3 °C 34164.7 hPa SSE 16.9 km/h 16.9 km/h 89 % 0 mm
10:11 -17.6 °C -18.3 °C 34164.7 hPa SSE 16.9 km/h 16.9 km/h 89 % 0 mm
10:17 -17.7 °C -18.3 °C 34164.7 hPa SSE 16.9 km/h 16.9 km/h 90 % 0 mm
10:22 -17.7 °C -18.3 °C 34164.7 hPa SSE 16.9 km/h 16.9 km/h 91 % 0 mm
10:27 -17.7 °C -18.3 °C 34164.7 hPa SSE 16.9 km/h 16.9 km/h 91 % 0 mm
10:32 -17.7 °C -18.3 °C 34198.6 hPa SSE 16.9 km/h 16.9 km/h 92 % 0 mm
10:37 -17.7 °C -18.3 °C 34198.6 hPa SSE 16.9 km/h 16.9 km/h 92 % 0 mm
10:42 -17.7 °C -18.3 °C 34198.6 hPa SSE 16.9 km/h 16.9 km/h 92 % 0 mm
10:47 -17.7 °C -18.3 °C 34164.7 hPa SSE 16.9 km/h 16.9 km/h 92 % 0 mm
10:52 -17.6 °C -18.3 °C 34164.7 hPa SSE 16.9 km/h 16.9 km/h 92 % 0 mm
10:57 -17.6 °C -18.3 °C 34164.7 hPa SSE 16.9 km/h 16.9 km/h 92 % 0 mm
11:02 -17.6 °C -17.8 °C 34164.7 hPa SSE 16.9 km/h 16.9 km/h 93 % 0 mm
11:07 -17.6 °C -17.8 °C 34164.7 hPa SSE 16.9 km/h 16.9 km/h 93 % 0 mm
11:12 -17.6 °C -17.8 °C 34164.7 hPa SSE 16.9 km/h 16.9 km/h 94 % 0 mm
11:17 -17.6 °C -17.8 °C 34164.7 hPa SSE 16.9 km/h 16.9 km/h 94 % 0 mm
11:22 -17.6 °C -17.8 °C 34164.7 hPa SSE 16.9 km/h 16.9 km/h 95 % 0 mm
11:27 -17.6 °C -17.8 °C 34164.7 hPa SSE 16.9 km/h 16.9 km/h 96 % 0 mm
11:32 -17.6 °C -17.8 °C 34164.7 hPa SSE 16.9 km/h 16.9 km/h 96 % 0 mm
11:37 -17.6 °C -17.8 °C 34164.7 hPa SSE 16.9 km/h 16.9 km/h 96 % 0 mm
11:42 -17.6 °C -17.8 °C 34164.7 hPa SSE 16.9 km/h 16.9 km/h 96 % 0 mm
11:47 -17.5 °C -17.2 °C 34164.7 hPa SSE 16.9 km/h 16.9 km/h 96 % 0 mm
11:52 -17.5 °C -17.2 °C 34164.7 hPa SSE 16.9 km/h 16.9 km/h 97 % 0 mm
11:57 -17.4 °C -17.2 °C 34164.7 hPa SSE 16.9 km/h 16.9 km/h 97 % 0 mm
12:02 -17.4 °C -17.2 °C 34164.7 hPa SSE 16.9 km/h 16.9 km/h 97 % 0 mm
12:07 -17.3 °C -17.2 °C 34164.7 hPa SSE 16.9 km/h 16.9 km/h 97 % 0 mm
12:12 -17.3 °C -17.2 °C 34164.7 hPa SSE 16.9 km/h 16.9 km/h 97 % 0 mm
12:18 -17.3 °C -17.2 °C 34164.7 hPa SSE 16.9 km/h 16.9 km/h 96 % 0 mm
12:23 -17.3 °C -17.2 °C 34164.7 hPa SSE 16.9 km/h 16.9 km/h 96 % 0 mm
12:28 -17.3 °C -17.2 °C 34164.7 hPa SSE 16.9 km/h 16.9 km/h 96 % 0 mm
12:33 -17.3 °C -17.2 °C 34164.7 hPa SSE 16.9 km/h 16.9 km/h 96 % 0 mm
12:38 -17.4 °C -17.8 °C 34164.7 hPa SSE 16.9 km/h 16.9 km/h 95 % 0 mm
12:43 -17.4 °C -17.8 °C 34164.7 hPa SSE 16.9 km/h 16.9 km/h 95 % 0 mm
12:48 -17.3 °C -17.2 °C 34198.6 hPa SSE 16.9 km/h 16.9 km/h 96 % 0 mm
12:53 -17.4 °C -17.2 °C 34198.6 hPa SSE 16.9 km/h 16.9 km/h 96 % 0 mm
12:58 -17.3 °C -17.2 °C 34198.6 hPa SSE 16.9 km/h 16.9 km/h 96 % 0 mm
13:03 -17.3 °C -17.2 °C 34164.7 hPa SSE 16.9 km/h 16.9 km/h 96 % 0 mm
13:08 -17.3 °C -17.2 °C 34164.7 hPa SSE 16.9 km/h 16.9 km/h 96 % 0 mm
13:13 -17.3 °C -17.2 °C 34164.7 hPa SSE 16.9 km/h 16.9 km/h 96 % 0 mm
13:18 -17.3 °C -17.2 °C 34164.7 hPa SSE 16.9 km/h 16.9 km/h 97 % 0 mm
13:23 -17.2 °C -17.2 °C 34164.7 hPa SSE 16.9 km/h 16.9 km/h 96 % 0 mm
13:28 -17.2 °C -17.2 °C 34130.9 hPa SSE 16.9 km/h 16.9 km/h 97 % 0 mm
13:33 -17.2 °C -17.2 °C 34130.9 hPa SSE 16.9 km/h 16.9 km/h 97 % 0 mm
13:38 -17.2 °C -17.2 °C 34130.9 hPa SSE 16.9 km/h 16.9 km/h 97 % 0 mm
13:43 -17.2 °C -17.2 °C 34130.9 hPa SSE 16.9 km/h 16.9 km/h 97 % 0 mm
13:49 -17.2 °C -17.2 °C 34130.9 hPa SSE 16.9 km/h 16.9 km/h 97 % 0 mm
13:54 -17.2 °C -17.2 °C 34130.9 hPa SSE 16.9 km/h 16.9 km/h 97 % 0 mm
13:59 -17.2 °C -17.2 °C 34130.9 hPa SSE 16.9 km/h 16.9 km/h 97 % 0 mm
14:04 -17.2 °C -17.2 °C 34130.9 hPa SSE 16.9 km/h 16.9 km/h 97 % 0 mm
14:09 -17.2 °C -17.2 °C 34130.9 hPa SSE 16.9 km/h 16.9 km/h 97 % 0 mm
14:14 -17.2 °C -17.2 °C 34130.9 hPa SSE 16.9 km/h 16.9 km/h 97 % 0 mm
14:19 -17.1 °C -17.2 °C 34130.9 hPa SSE 16.9 km/h 16.9 km/h 97 % 0 mm
14:24 -17.1 °C -17.2 °C 34130.9 hPa SSE 16.9 km/h 16.9 km/h 98 % 0 mm
14:29 -17.1 °C -17.2 °C 34130.9 hPa SSE 16.9 km/h 16.9 km/h 98 % 0 mm
14:34 -17.1 °C -17.2 °C 34130.9 hPa SSE 16.9 km/h 16.9 km/h 98 % 0 mm
14:39 -17.1 °C -17.2 °C 34130.9 hPa SSE 16.9 km/h 16.9 km/h 98 % 0 mm
14:44 -17.1 °C -17.2 °C 34130.9 hPa SSE 16.9 km/h 16.9 km/h 98 % 0 mm
14:49 -17 °C -17.2 °C 34130.9 hPa SSE 16.9 km/h 16.9 km/h 98 % 0 mm
14:54 -17 °C -17.2 °C 34130.9 hPa SSE 16.9 km/h 16.9 km/h 98 % 0 mm
14:59 -16.9 °C -16.7 °C 34130.9 hPa SSE 16.9 km/h 16.9 km/h 98 % 0 mm
15:04 -16.9 °C -16.7 °C 34130.9 hPa SSE 16.9 km/h 16.9 km/h 98 % 0 mm
15:09 -16.8 °C -16.7 °C 34130.9 hPa SSE 16.9 km/h 16.9 km/h 98 % 0 mm
15:15 -16.7 °C -16.7 °C 34130.9 hPa SSE 16.9 km/h 16.9 km/h 98 % 0 mm
15:20 -16.7 °C -16.7 °C 34130.9 hPa SSE 16.9 km/h 16.9 km/h 98 % 0 mm
15:25 -16.7 °C -16.7 °C 34130.9 hPa SSE 16.9 km/h 16.9 km/h 98 % 0 mm
15:30 -16.7 °C -16.7 °C 34164.7 hPa SSE 16.9 km/h 16.9 km/h 98 % 0 mm
15:35 -16.7 °C -16.7 °C 34164.7 hPa SSE 16.9 km/h 16.9 km/h 98 % 0 mm
15:40 -16.6 °C -16.7 °C 34164.7 hPa SSE 16.9 km/h 16.9 km/h 98 % 7.62 mm
15:45 -16.6 °C -16.7 °C 34164.7 hPa SSE 16.9 km/h 16.9 km/h 98 % 7.62 mm
15:50 -16.6 °C -16.7 °C 34164.7 hPa SSE 16.9 km/h 16.9 km/h 98 % 7.62 mm
15:55 -16.5 °C -16.1 °C 34164.7 hPa SSE 16.9 km/h 16.9 km/h 98 % 12.7 mm
16:00 -16.5 °C -16.1 °C 34164.7 hPa SSE 16.9 km/h 16.9 km/h 98 % 12.7 mm
16:05 -16.6 °C -16.7 °C 34164.7 hPa SSE 16.9 km/h 16.9 km/h 98 % 12.7 mm
16:10 -16.6 °C -16.7 °C 34164.7 hPa SSE 16.9 km/h 16.9 km/h 98 % 12.7 mm
16:15 -16.6 °C -16.7 °C 34164.7 hPa SSE 16.9 km/h 16.9 km/h 98 % 12.7 mm
16:20 -16.6 °C -16.7 °C 34164.7 hPa SSE 16.9 km/h 16.9 km/h 98 % 12.7 mm
16:25 -16.6 °C -16.7 °C 34164.7 hPa SSE 16.9 km/h 16.9 km/h 98 % 12.7 mm
16:30 -16.6 °C -16.7 °C 34164.7 hPa SSE 16.9 km/h 16.9 km/h 98 % 12.7 mm
16:35 -16.7 °C -16.7 °C 34164.7 hPa SSE 16.9 km/h 16.9 km/h 98 % 20.32 mm
16:40 -16.7 °C -16.7 °C 34164.7 hPa SSE 16.9 km/h 16.9 km/h 98 % 12.7 mm
16:45 -16.7 °C -16.7 °C 34164.7 hPa SSE 16.9 km/h 16.9 km/h 98 % 12.7 mm
16:50 -16.7 °C -16.7 °C 34164.7 hPa SSE 16.9 km/h 16.9 km/h 98 % 12.7 mm
16:55 -16.6 °C -16.7 °C 34164.7 hPa SSE 16.9 km/h 16.9 km/h 98 % 7.62 mm
17:00 -16.5 °C -16.1 °C 34164.7 hPa SSE 16.9 km/h 16.9 km/h 98 % 7.62 mm
17:06 -16.4 °C -16.1 °C 34164.7 hPa SSW 11.1 km/h 11.1 km/h 98 % 7.62 mm
17:11 -16.4 °C -16.1 °C 34164.7 hPa SSW 11.1 km/h 11.1 km/h 98 % 7.62 mm
17:16 -16.4 °C -16.1 °C 34164.7 hPa SSW 11.1 km/h 11.1 km/h 98 % 7.62 mm
17:21 -16.5 °C -16.1 °C 34164.7 hPa SSW 11.1 km/h 11.1 km/h 98 % 7.62 mm
17:26 -16.6 °C -16.7 °C 34164.7 hPa SSW 11.1 km/h 11.1 km/h 98 % 7.62 mm
17:31 -16.6 °C -16.7 °C 34164.7 hPa SSW 11.1 km/h 11.1 km/h 98 % 0 mm
17:36 -16.7 °C -16.7 °C 34164.7 hPa SSW 11.1 km/h 11.1 km/h 97 % 0 mm
17:41 -16.7 °C -16.7 °C 34164.7 hPa SSW 11.1 km/h 11.1 km/h 98 % 0 mm
17:46 -16.8 °C -17.2 °C 34164.7 hPa SSW 11.1 km/h 11.1 km/h 97 % 0 mm
17:51 -16.8 °C -17.2 °C 34164.7 hPa SSW 11.1 km/h 11.1 km/h 97 % 0 mm
17:56 -16.8 °C -17.2 °C 34164.7 hPa SSW 11.1 km/h 11.1 km/h 97 % 0 mm
18:01 -16.8 °C -17.2 °C 34198.6 hPa SSW 2.9 km/h 2.9 km/h 97 % 0 mm
18:06 -16.8 °C -16.7 °C 34198.6 hPa SSW 2.9 km/h 2.9 km/h 98 % 0 mm
18:12 -16.8 °C -16.7 °C 34198.6 hPa SSW 2.9 km/h 2.9 km/h 98 % 0 mm
18:17 -16.8 °C -16.7 °C 34198.6 hPa SSW 2.9 km/h 2.9 km/h 98 % 0 mm
18:22 -16.8 °C -16.7 °C 34198.6 hPa SSW 2.9 km/h 2.9 km/h 98 % 0 mm
18:27 -16.8 °C -16.7 °C 34198.6 hPa SSW 2.9 km/h 2.9 km/h 98 % 0 mm
18:32 -16.8 °C -16.7 °C 34198.6 hPa SSW 2.9 km/h 2.9 km/h 98 % 0 mm
18:37 -16.9 °C -16.7 °C 34198.6 hPa SSW 2.9 km/h 2.9 km/h 98 % 0 mm
18:42 -16.9 °C -16.7 °C 34198.6 hPa SSW 2.9 km/h 2.9 km/h 98 % 0 mm
18:47 -16.9 °C -16.7 °C 34198.6 hPa SSW 2.9 km/h 2.9 km/h 98 % 0 mm
18:52 -16.9 °C -16.7 °C 34198.6 hPa SSW 2.9 km/h 2.9 km/h 98 % 0 mm
18:57 -17 °C -17.2 °C 34198.6 hPa SSW 2.9 km/h 2.9 km/h 98 % 0 mm
19:02 -17.1 °C -17.2 °C 34198.6 hPa Calm     97 % 0 mm
19:07 -17.2 °C -17.2 °C 34198.6 hPa Calm     97 % 7.62 mm
19:12 -17.2 °C -17.2 °C 34198.6 hPa Calm     97 % 7.62 mm
19:17 -17.3 °C -17.2 °C 34235.8 hPa Calm     97 % 7.62 mm
19:22 -17.3 °C -17.2 °C 34235.8 hPa Calm     97 % 7.62 mm
19:27 -17.2 °C -17.2 °C 34235.8 hPa Calm     97 % 7.62 mm
19:32 -17.2 °C -17.2 °C 34235.8 hPa Calm     98 % 7.62 mm
19:37 -17.1 °C -17.2 °C 34235.8 hPa Calm     98 % 7.62 mm
19:42 -17 °C -17.2 °C 34235.8 hPa Calm     98 % 7.62 mm
19:47 -16.9 °C -16.7 °C 34198.6 hPa West 14.5 km/h 14.5 km/h 98 % 7.62 mm
19:52 -16.9 °C -16.7 °C 34198.6 hPa West 14.5 km/h 14.5 km/h 98 % 7.62 mm
19:57 -16.8 °C -16.7 °C 34198.6 hPa West 14.5 km/h 14.5 km/h 98 % 7.62 mm
20:02 -16.7 °C -16.7 °C 34235.8 hPa West 14.5 km/h 14.5 km/h 98 % 7.62 mm
20:07 -16.7 °C -16.7 °C 34235.8 hPa West 14.5 km/h 14.5 km/h 98 % 7.62 mm
20:12 -16.7 °C -16.7 °C 34235.8 hPa West 14.5 km/h 14.5 km/h 98 % 7.62 mm
20:18 -16.6 °C -16.7 °C 34235.8 hPa West 14.5 km/h 14.5 km/h 98 % 7.62 mm
20:23 -16.7 °C -16.7 °C 34235.8 hPa West 14.5 km/h 14.5 km/h 98 % 7.62 mm
20:28 -16.6 °C -16.7 °C 34235.8 hPa West 14.5 km/h 14.5 km/h 98 % 7.62 mm
20:33 -16.6 °C -16.7 °C 34235.8 hPa West 14.5 km/h 14.5 km/h 98 % 12.7 mm
20:38 -16.6 °C -16.7 °C 34235.8 hPa West 14.5 km/h 14.5 km/h 98 % 12.7 mm
20:43 -16.6 °C -16.7 °C 34235.8 hPa West 14.5 km/h 14.5 km/h 98 % 20.32 mm
20:48 -16.6 °C -16.7 °C 34235.8 hPa West 14.5 km/h 14.5 km/h 98 % 20.32 mm
20:53 -16.6 °C -16.7 °C 34235.8 hPa West 14.5 km/h 14.5 km/h 98 % 33.02 mm
20:58 -16.6 °C -16.7 °C 34235.8 hPa West 14.5 km/h 14.5 km/h 98 % 33.02 mm
21:03 -16.6 °C -16.7 °C 34269.7 hPa West 14.5 km/h 14.5 km/h 98 % 33.02 mm
21:08 -16.6 °C -16.7 °C 34269.7 hPa West 14.5 km/h 14.5 km/h 98 % 20.32 mm
21:13 -16.7 °C -16.7 °C 34269.7 hPa West 14.5 km/h 14.5 km/h 98 % 33.02 mm
21:18 -16.7 °C -16.7 °C 34269.7 hPa West 14.5 km/h 14.5 km/h 98 % 33.02 mm
21:23 -16.7 °C -16.7 °C 34269.7 hPa West 14.5 km/h 14.5 km/h 98 % 33.02 mm
21:28 -16.7 °C -16.7 °C 34269.7 hPa West 14.5 km/h 14.5 km/h 98 % 33.02 mm
21:33 -16.7 °C -16.7 °C 34269.7 hPa West 14.5 km/h 14.5 km/h 98 % 25.4 mm
21:38 -16.7 °C -16.7 °C 34269.7 hPa Calm     98 % 25.4 mm
21:43 -16.7 °C -16.7 °C 34269.7 hPa Calm     98 % 20.32 mm
21:48 -16.7 °C -16.7 °C 34269.7 hPa Calm     98 % 7.62 mm
21:54 -16.7 °C -16.7 °C 34269.7 hPa Calm     98 % 7.62 mm
21:59 -16.7 °C -16.7 °C 34303.6 hPa Calm     98 % 7.62 mm
22:04 -16.8 °C -16.7 °C 34303.6 hPa Calm     98 % 7.62 mm
22:09 -16.8 °C -16.7 °C 34303.6 hPa Calm     98 % 7.62 mm
22:14 -16.7 °C -16.7 °C 34303.6 hPa West 4.2 km/h 4.2 km/h 98 % 7.62 mm
22:19 -16.6 °C -16.7 °C 34303.6 hPa West 4.2 km/h 4.2 km/h 98 % 7.62 mm
22:24 -16.5 °C -16.1 °C 34303.6 hPa West 4.2 km/h 4.2 km/h 98 % 7.62 mm
22:29 -16.5 °C -16.1 °C 34303.6 hPa West 4.2 km/h 4.2 km/h 98 % 7.62 mm
22:34 -16.4 °C -16.1 °C 34303.6 hPa West 4.2 km/h 4.2 km/h 98 % 7.62 mm
22:39 -16.4 °C -16.1 °C 34303.6 hPa West 4.2 km/h 4.2 km/h 98 % 20.32 mm
22:44 -16.4 °C -16.1 °C 34303.6 hPa West 11.1 km/h 11.1 km/h 98 % 38.1 mm
22:49 -16.4 °C -16.1 °C 34303.6 hPa West 11.1 km/h 11.1 km/h 98 % 38.1 mm
22:54 -16.4 °C -16.1 °C 34303.6 hPa West 11.1 km/h 11.1 km/h 98 % 38.1 mm
22:59 -16.3 °C -16.1 °C 34269.7 hPa West 11.1 km/h 11.1 km/h 98 % 38.1 mm
23:04 -16.3 °C -16.1 °C 34269.7 hPa West 11.1 km/h 11.1 km/h 98 % 38.1 mm
23:09 -16.3 °C -16.1 °C 34269.7 hPa West 11.1 km/h 11.1 km/h 98 % 38.1 mm
23:14 -16.2 °C -16.1 °C 34303.6 hPa West 11.1 km/h 11.1 km/h 98 % 38.1 mm
23:19 -16.2 °C -16.1 °C 34303.6 hPa West 11.1 km/h 11.1 km/h 98 % 38.1 mm
23:24 -16.3 °C -16.1 °C 34303.6 hPa West 11.1 km/h 11.1 km/h 98 % 38.1 mm
23:29 -16.3 °C -16.1 °C 34303.6 hPa West 11.1 km/h 11.1 km/h 98 % 38.1 mm
23:34 -16.3 °C -16.1 °C 34303.6 hPa West 11.1 km/h 11.1 km/h 98 % 33.02 mm
23:39 -16.3 °C -16.1 °C 34303.6 hPa West 11.1 km/h 11.1 km/h 98 % 20.32 mm
23:44 -16.3 °C -16.1 °C 34303.6 hPa West 11.1 km/h 11.1 km/h 98 % 20.32 mm
23:49 -16.3 °C -16.1 °C 34303.6 hPa West 11.1 km/h 11.1 km/h 98 % 20.32 mm
23:54 -16.3 °C -16.1 °C 34303.6 hPa West 11.1 km/h 11.1 km/h 98 % 25.4 mm
23:59 -16.4 °C -16.1 °C 34337.4 hPa West 11.1 km/h 11.1 km/h 98 % 25.4 mm
Le Gheer Warneton
Courtoisie de Weather Underground - 2.25 mb

Mise a jour : 25/02/2018 14:56:11
Généré par Cumulus 1.9.4 (1099)